AFR56TH LFML-LFKJ

Flight info

Callsign AFR56TH
Flight time 0h 41m
Altitude 23000
Route TINOT Z154 RUBAS
Aircraft A319/M-SDE3FGHIRWY/LB1

Departure

Time 2026-04-22 20:57
Airport Marseille Provence Airport (LFML)

Arrival

Time 2026-04-22 21:39
Airport Ajaccio Napoléon Bonaparte airport (LFKJ)
Time Latitude Longitude Altitude Speed Heading
2026-04-22 20:30 43.43862 5.22304 45 ft 0 kts 73°
2026-04-22 20:31 43.43926 5.22288 44 ft 0 kts 28°
2026-04-22 20:48 43.43911 5.22276 42 ft 4 kts 34°
2026-04-22 20:48 43.43889 5.22253 41 ft 4 kts 47°
2026-04-22 20:49 43.43874 5.22224 38 ft 4 kts 71°
2026-04-22 20:49 43.43872 5.22193 40 ft 4 kts 128°
2026-04-22 20:49 43.43878 5.22184 41 ft 0 kts 155°
2026-04-22 20:52 43.43877 5.22185 41 ft 1 kts 155°
2026-04-22 20:52 43.43862 5.22194 43 ft 4 kts 154°
2026-04-22 20:53 43.43832 5.22215 44 ft 6 kts 156°
2026-04-22 20:53 43.43783 5.22234 45 ft 8 kts 173°
2026-04-22 20:53 43.43726 5.22184 44 ft 12 kts 221°
2026-04-22 20:53 43.43655 5.22104 46 ft 14 kts 183°
2026-04-22 20:54 43.43563 5.22170 49 ft 16 kts 147°
2026-04-22 20:54 43.43461 5.22251 50 ft 18 kts 150°
2026-04-22 20:54 43.43342 5.22313 52 ft 18 kts 148°
2026-04-22 20:54 43.43259 5.22427 59 ft 16 kts 133°
2026-04-22 20:55 43.43186 5.22532 62 ft 15 kts 133°
2026-04-22 20:55 43.43120 5.22632 61 ft 14 kts 137°
2026-04-22 20:55 43.43053 5.22719 62 ft 13 kts 135°
2026-04-22 20:55 43.42993 5.22805 63 ft 12 kts 133°
2026-04-22 20:56 43.42930 5.22874 64 ft 11 kts 164°
2026-04-22 20:56 43.42863 5.22841 63 ft 11 kts 224°
2026-04-22 20:56 43.42819 5.22752 63 ft 12 kts 259°
2026-04-22 20:56 43.42846 5.22674 61 ft 0 kts 314°
2026-04-22 20:57 43.42884 5.22621 64 ft 37 kts 314°
2026-04-22 20:57 43.43270 5.22071 53 ft 118 kts 314°
2026-04-22 20:57 43.43989 5.21050 125 ft 167 kts 315°
2026-04-22 20:57 43.44797 5.19935 871 ft 163 kts 317°
2026-04-22 20:58 43.45621 5.18779 1436 ft 178 kts 315°
2026-04-22 20:58 43.46483 5.17467 1983 ft 193 kts 308°
2026-04-22 20:58 43.46978 5.15651 2362 ft 216 kts 273°
2026-04-22 20:58 43.46731 5.13542 2919 ft 230 kts 242°
2026-04-22 20:59 43.45815 5.11807 3921 ft 223 kts 218°
2026-04-22 20:59 43.44467 5.10815 4878 ft 222 kts 194°
2026-04-22 20:59 43.42972 5.10263 5792 ft 223 kts 195°
2026-04-22 20:59 43.41477 5.09719 6656 ft 227 kts 195°
2026-04-22 21:00 43.39937 5.09159 7444 ft 231 kts 196°
2026-04-22 21:00 43.38364 5.08588 8253 ft 237 kts 197°
2026-04-22 21:00 43.36661 5.08200 8704 ft 264 kts 179°
2026-04-22 21:00 43.34783 5.08788 9155 ft 289 kts 165°
2026-04-22 21:01 43.32809 5.09543 9918 ft 299 kts 167°
2026-04-22 21:01 43.30741 5.10267 10407 ft 319 kts 168°
2026-04-22 21:01 43.28531 5.11015 10961 ft 333 kts 168°
2026-04-22 21:01 43.26255 5.11785 11734 ft 339 kts 168°
2026-04-22 21:02 43.23963 5.12570 12593 ft 342 kts 168°
2026-04-22 21:02 43.21647 5.13376 13458 ft 345 kts 168°
2026-04-22 21:02 43.19301 5.14199 14023 ft 350 kts 168°
2026-04-22 21:02 43.16935 5.15032 14779 ft 353 kts 169°
2026-04-22 21:03 43.14545 5.15872 15500 ft 357 kts 169°
2026-04-22 21:03 43.12127 5.16720 16202 ft 361 kts 169°
2026-04-22 21:03 43.09681 5.17579 16884 ft 365 kts 169°
2026-04-22 21:03 43.07204 5.18449 17570 ft 370 kts 169°
2026-04-22 21:04 43.04697 5.19330 18255 ft 374 kts 169°
2026-04-22 21:04 43.02159 5.20219 18847 ft 379 kts 169°
2026-04-22 21:04 42.99593 5.21118 19435 ft 383 kts 169°
2026-04-22 21:04 42.96996 5.22029 20009 ft 387 kts 169°
2026-04-22 21:05 42.94369 5.22947 20596 ft 392 kts 169°
2026-04-22 21:05 42.91712 5.23875 21176 ft 396 kts 169°
2026-04-22 21:05 42.89025 5.24811 21743 ft 400 kts 169°
2026-04-22 21:05 42.86347 5.25743 22314 ft 405 kts 169°
2026-04-22 21:06 42.83598 5.26701 22833 ft 409 kts 169°
2026-04-22 21:06 42.80833 5.27666 22983 ft 409 kts 169°
2026-04-22 21:06 42.78135 5.28612 23012 ft 392 kts 169°
2026-04-22 21:06 42.75528 5.29533 23012 ft 384 kts 168°
2026-04-22 21:07 42.73046 5.30906 23005 ft 388 kts 153°
2026-04-22 21:07 42.70847 5.33057 23007 ft 391 kts 138°
2026-04-22 21:07 42.69076 5.35869 23011 ft 393 kts 123°
2026-04-22 21:07 42.67845 5.39184 23012 ft 394 kts 109°
2026-04-22 21:08 42.66968 5.42709 23011 ft 394 kts 108°
2026-04-22 21:08 42.66092 5.46235 23014 ft 394 kts 108°
2026-04-22 21:08 42.65208 5.49768 23009 ft 394 kts 108°
2026-04-22 21:08 42.64325 5.53283 23018 ft 394 kts 108°
2026-04-22 21:09 42.63438 5.56806 23018 ft 394 kts 108°
2026-04-22 21:09 42.62560 5.60290 23018 ft 394 kts 108°
2026-04-22 21:09 42.61674 5.63812 23029 ft 394 kts 108°
2026-04-22 21:09 42.60784 5.67332 23018 ft 394 kts 108°
2026-04-22 21:10 42.59891 5.70851 23022 ft 394 kts 108°
2026-04-22 21:10 42.58996 5.74367 23027 ft 394 kts 108°
2026-04-22 21:10 42.58391 5.76744 23017 ft 394 kts 108°
2026-04-22 21:10 42.57495 5.80258 23016 ft 394 kts 108°
2026-04-22 21:11 42.56600 5.83771 23016 ft 394 kts 108°
2026-04-22 21:11 42.55715 5.87244 23015 ft 394 kts 108°
2026-04-22 21:11 42.54811 5.90795 23021 ft 394 kts 108°
2026-04-22 21:11 42.53923 5.94266 23019 ft 394 kts 108°
2026-04-22 21:12 42.53022 5.97773 23018 ft 394 kts 108°
2026-04-22 21:12 42.52122 6.01279 23020 ft 394 kts 108°
2026-04-22 21:12 42.51226 6.04777 23015 ft 394 kts 108°
2026-04-22 21:12 42.50326 6.08294 23015 ft 394 kts 108°
2026-04-22 21:13 42.49428 6.11798 23013 ft 394 kts 108°
2026-04-22 21:13 42.48530 6.15293 23010 ft 394 kts 108°
2026-04-22 21:13 42.47627 6.18794 23010 ft 394 kts 108°
2026-04-22 21:13 42.46721 6.22301 23009 ft 394 kts 108°
2026-04-22 21:14 42.45813 6.25798 23012 ft 394 kts 108°
2026-04-22 21:14 42.44902 6.29286 23009 ft 394 kts 109°
2026-04-22 21:14 42.43985 6.32789 23013 ft 394 kts 109°
2026-04-22 21:14 42.43073 6.36285 23008 ft 394 kts 109°
2026-04-22 21:15 42.42163 6.39783 23010 ft 394 kts 109°
2026-04-22 21:15 42.41254 6.43281 23009 ft 394 kts 109°
2026-04-22 21:15 42.40342 6.46785 23013 ft 394 kts 109°
2026-04-22 21:15 42.39429 6.50279 23029 ft 394 kts 109°
2026-04-22 21:16 42.38514 6.53769 23020 ft 394 kts 109°
2026-04-22 21:16 42.37608 6.57219 23022 ft 393 kts 109°
2026-04-22 21:16 42.36688 6.60712 23017 ft 393 kts 109°
2026-04-22 21:16 42.35768 6.64195 23028 ft 393 kts 109°
2026-04-22 21:17 42.34849 6.67675 23013 ft 393 kts 109°
2026-04-22 21:17 42.33932 6.71145 23016 ft 393 kts 109°
2026-04-22 21:17 42.33011 6.74630 23016 ft 393 kts 109°
2026-04-22 21:17 42.32094 6.78107 23014 ft 393 kts 109°
2026-04-22 21:18 42.31174 6.81583 23016 ft 393 kts 109°
2026-04-22 21:18 42.30252 6.85059 23028 ft 393 kts 109°
2026-04-22 21:18 42.29329 6.88533 23031 ft 393 kts 109°
2026-04-22 21:18 42.28404 6.92005 23031 ft 393 kts 109°
2026-04-22 21:19 42.27477 6.95480 23030 ft 393 kts 109°
2026-04-22 21:19 42.26549 6.98950 23029 ft 393 kts 109°
2026-04-22 21:19 42.25620 7.02419 23027 ft 393 kts 109°
2026-04-22 21:19 42.24690 7.05886 23030 ft 393 kts 109°
2026-04-22 21:20 42.23760 7.09352 23030 ft 393 kts 109°
2026-04-22 21:20 42.22829 7.12817 23032 ft 393 kts 109°
2026-04-22 21:20 42.21897 7.16282 23029 ft 393 kts 109°
2026-04-22 21:20 42.20964 7.19746 23028 ft 393 kts 109°
2026-04-22 21:21 42.20030 7.23208 23028 ft 393 kts 109°
2026-04-22 21:21 42.19093 7.26668 23029 ft 393 kts 109°
2026-04-22 21:21 42.18155 7.30125 23025 ft 393 kts 109°
2026-04-22 21:21 42.17217 7.33581 23021 ft 393 kts 109°
2026-04-22 21:22 42.16278 7.37047 23035 ft 400 kts 109°
2026-04-22 21:22 42.15300 7.40662 23016 ft 421 kts 109°
2026-04-22 21:22 42.14271 7.44454 23021 ft 440 kts 109°
2026-04-22 21:22 42.13211 7.48344 22679 ft 452 kts 109°
2026-04-22 21:23 42.12120 7.52330 22409 ft 453 kts 109°
2026-04-22 21:23 42.11030 7.56306 22038 ft 452 kts 109°
2026-04-22 21:23 42.09948 7.60252 21452 ft 448 kts 109°
2026-04-22 21:23 42.08872 7.64176 20898 ft 445 kts 109°
2026-04-22 21:24 42.07801 7.68080 20343 ft 442 kts 109°
2026-04-22 21:24 42.06742 7.71940 19795 ft 439 kts 109°
2026-04-22 21:24 42.05682 7.75793 19255 ft 437 kts 110°
2026-04-22 21:24 42.04625 7.79616 18720 ft 435 kts 110°
2026-04-22 21:25 42.03571 7.83420 18174 ft 433 kts 110°
2026-04-22 21:25 42.02524 7.87200 17612 ft 429 kts 110°
2026-04-22 21:25 42.01486 7.90940 17108 ft 425 kts 110°
2026-04-22 21:25 42.00456 7.94638 16596 ft 420 kts 110°
2026-04-22 21:26 41.99447 7.98255 16097 ft 416 kts 110°
2026-04-22 21:26 41.98282 8.01786 15624 ft 412 kts 120°
2026-04-22 21:26 41.96577 8.04836 15180 ft 406 kts 135°
2026-04-22 21:26 41.94475 8.07339 14731 ft 402 kts 142°
2026-04-22 21:27 41.92338 8.09743 14282 ft 399 kts 142°
2026-04-22 21:27 41.90212 8.12127 13829 ft 396 kts 141°
2026-04-22 21:27 41.88109 8.14481 13354 ft 392 kts 142°
2026-04-22 21:27 41.86039 8.16791 13071 ft 378 kts 142°
2026-04-22 21:28 41.84081 8.18983 12693 ft 360 kts 142°
2026-04-22 21:28 41.82174 8.21118 12073 ft 352 kts 142°
2026-04-22 21:28 41.80329 8.23184 11655 ft 339 kts 142°
2026-04-22 21:28 41.78568 8.25154 11270 ft 328 kts 142°
2026-04-22 21:29 41.76842 8.27078 10862 ft 318 kts 142°
2026-04-22 21:29 41.75169 8.28944 10494 ft 308 kts 142°
2026-04-22 21:29 41.73536 8.30766 10049 ft 302 kts 142°
2026-04-22 21:29 41.71938 8.32547 9624 ft 295 kts 142°
2026-04-22 21:30 41.70384 8.34278 9241 ft 286 kts 142°
2026-04-22 21:30 41.68850 8.35986 8878 ft 287 kts 142°
2026-04-22 21:30 41.67317 8.37690 8483 ft 286 kts 142°
2026-04-22 21:30 41.65802 8.39409 8101 ft 286 kts 137°
2026-04-22 21:31 41.64528 8.41445 7640 ft 289 kts 123°
2026-04-22 21:31 41.63538 8.43803 6990 ft 299 kts 117°
2026-04-22 21:31 41.62877 8.46424 6550 ft 297 kts 99°
2026-04-22 21:31 41.62882 8.49207 5733 ft 302 kts 77°
2026-04-22 21:32 41.63598 8.51804 5044 ft 295 kts 57°
2026-04-22 21:32 41.64739 8.54035 4540 ft 284 kts 53°
2026-04-22 21:32 41.65818 8.56094 4468 ft 258 kts 53°
2026-04-22 21:32 41.66794 8.57972 4407 ft 234 kts 54°
2026-04-22 21:33 41.67689 8.59689 4344 ft 219 kts 54°
2026-04-22 21:33 41.68561 8.61355 4270 ft 218 kts 54°
2026-04-22 21:33 41.69431 8.63015 4178 ft 217 kts 54°
2026-04-22 21:33 41.70297 8.64665 4082 ft 216 kts 54°
2026-04-22 21:34 41.71142 8.66274 3988 ft 206 kts 53°
2026-04-22 21:34 41.72126 8.67592 3889 ft 197 kts 32°
2026-04-22 21:34 41.73346 8.68416 3660 ft 196 kts 24°
2026-04-22 21:34 41.74555 8.69163 3551 ft 194 kts 24°
2026-04-22 21:35 41.75782 8.69923 3337 ft 194 kts 25°
2026-04-22 21:35 41.77008 8.70683 3091 ft 194 kts 25°
2026-04-22 21:35 41.78239 8.71446 2832 ft 195 kts 25°
2026-04-22 21:35 41.79475 8.72213 2601 ft 195 kts 25°
2026-04-22 21:36 41.80707 8.72977 2311 ft 195 kts 25°
2026-04-22 21:36 41.81929 8.73736 2043 ft 192 kts 25°
2026-04-22 21:36 41.83129 8.74481 1785 ft 188 kts 25°
2026-04-22 21:36 41.84285 8.75199 1532 ft 178 kts 25°
2026-04-22 21:37 41.85377 8.75876 1312 ft 167 kts 25°
2026-04-22 21:37 41.86399 8.76502 1083 ft 154 kts 24°
2026-04-22 21:37 41.87322 8.77088 852 ft 141 kts 25°
2026-04-22 21:37 41.88192 8.77648 635 ft 137 kts 25°
2026-04-22 21:38 41.89046 8.78174 450 ft 135 kts 24°
2026-04-22 21:38 41.89892 8.78690 330 ft 133 kts 24°
2026-04-22 21:38 41.90732 8.79213 156 ft 133 kts 23°
2026-04-22 21:38 41.91568 8.79729 26 ft 131 kts 24°
2026-04-22 21:39 41.92217 8.80135 21 ft 62 kts 26°
2026-04-22 21:39 41.92405 8.80212 24 ft 8 kts 306°
2026-04-22 21:39 41.92402 8.80162 24 ft 6 kts 263°
2026-04-22 21:39 41.92400 8.80101 24 ft 7 kts 270°
2026-04-22 21:40 41.92402 8.80021 26 ft 9 kts 274°
2026-04-22 21:40 41.92404 8.79955 28 ft 7 kts 268°
2026-04-22 21:40 41.92374 8.79905 29 ft 8 kts 212°
2026-04-22 21:40 41.92324 8.79871 28 ft 9 kts 204°
2026-04-22 21:41 41.92265 8.79837 28 ft 10 kts 205°
2026-04-22 21:41 41.92199 8.79797 28 ft 11 kts 204°
2026-04-22 21:41 41.92127 8.79751 28 ft 12 kts 205°
2026-04-22 21:41 41.92049 8.79701 28 ft 13 kts 204°
2026-04-22 21:42 41.91962 8.79647 28 ft 14 kts 204°
2026-04-22 21:42 41.91880 8.79590 32 ft 10 kts 226°
2026-04-22 21:42 41.91891 8.79547 28 ft 0 kts 339°
2026-04-22 21:42 41.91895 8.79545 28 ft 1 kts 341°
2026-04-22 21:43 41.91903 8.79541 28 ft 0 kts 343°
2026-04-22 21:43 41.91904 8.79541 28 ft 0 kts 343°